CZ-6A DEB, 55548

Orbit data source: Space-Track

CZ-6A DEB, 55548 is space debris in SSO originally from a launch on Fri, 11 Nov 2022 UTC launched from the Taiyaun Space Center, China (TSC). Debris objects in space refer to the collection of defunct objects orbiting the Earth. Examples of debris include non-operational satellites, rocket bodies, and fragments generated from explosions, collisions, or faulty payload assembly.

Loading next visibility...
Identifier
55548, 2022-151YW
Orbit
SSO
Country
Flag of CNCN / PRC
Related business
Manufacturer
SAST
Mission
Spacecraft
Bus & Motor
Unknown
Mass
Unknown
Launch date (UTC)
2022-11-11 (4 years ago)
Launch vehicle
Unknown
Launch site
Taiyaun Space Center, China (TSC)
Object type
Payload
Rocket body
Debris
Shape & HBR
Unknown shape, 0.1 m
Radar Cross Section
Small (<0.1 m²)

Expand to show TLE details & history
Last TLE update: 2 days ago

TLE from 2 days ago
0 CZ-6A DEB
1 55548U 22151YW  26171.31077941  .00003454  00000-0  11837-2 0  9995
2 55548  98.6802 189.4115 0070159 106.3995 254.4918 14.35439008187181
Epoch: 2026-06-20T07:27Z
TLE epoch observation values (Epoch: 2026-06-20T07:27:31.341Z)
Latitude
0.00007°
Longitude
169.00367°
Altitude
790.289 km
Speed
7.451 km/s
True Right ascension
12h 37m 38s
True Declination
0° 00' 00"
Sunlit
Object was in daylight at epoch
Visualization orbit readout
Latitude
Unknown
Longitude
Unknown
Altitude
Unknown
Speed
Unknown
Apparent Right ascension
Unknown
Apparent Declination
Unknown
Sunlit
N/A
Visualization observer readout
Local Sidereal Time
21:29:02
Azimuth
Unknown
Elevation
Unknown
Doppler factor
Unknown
Orbital elements
Apogee altitude
820.9 km
Perigee altitude
720.588 km
Semi-major axis
7,148.881 km
Eccentricity
0.00702
Inclination
98.6802°
RAAN
189.4115°
Arg. of periapsis
106.3995°
True anomaly
253.71894°
Mean anomaly
254.4918°
Eccentric anomaly
254.10519°
Mean motion
3.59076 °/min
Orbital period
100.26 mins
BSTAR
0.0011837
Loading maneuver chart data...
Computing Atmospheric mass density...
Loading historical data...
Loading historical data...
Loading historical data...
Loading historical data...
Loading historical data...
Loading historical data...
Loading historical data...

Documentation

Showing up to 5 results
|